Regional Weather Roundup
Issued by NWS

Home | Current Version | Previous Version | Text Only | Print | Product List | Glossary Off
Versions: 1 2 3 4 5 6 7 8 9 10 11 12 13 14 15 16 17 18 19 20 21 22 23 24 25 26 27 28 29 30 31 32 33 34 35 36 37 38 39 40 41 42 43 44 45 46 47 48 49 50

000
ASUS45 KABQ 011710
RWRNM
WEATHER ROUNDUP FOR NEW MEXICO
NATIONAL WEATHER SERVICE ALBUQUERQUE NM
1100 AM MDT MON SEP 01 2014

NOTE: "FAIR" MEANS FEW OR NO CLOUDS BELOW 12,000 FEET AGL WITH NO
       SIGNIFICANT WEATHER OR OBSTRUCTIONS TO VISION.

      THIS PRODUCT IS RELEASED AS TWO VERSIONS.  ONE VERSION NEAR
      THE TOP OF THE HOUR CONTAINING PRELIMINARY DATA FROM ALBUQUERQUE
      AND OTHER STATIONS.  A FINAL VERSION WITH ADDITIONAL DATA IS
      ISSUED ABOUT 10 MINUTES AFTER THE HOUR.

NMZ501-503-504-510>518-011800-
NORTHWEST PLATEAU/NORTHCENTRAL MOUNTAINS

CITY           SKY/WX    TMP DP  RH WIND       PRES   REMARKS
FARMINGTON     SUNNY     78  38  23 VRB5      30.12S
LOS ALAMOS     SUNNY     74  37  26 E6        30.24F
SANTA FE       SUNNY     79  38  22 SW9       30.17F
ANGEL FIRE     FAIR      67  37  32 W10G17    30.30S

$$
NMZ402-403-502-505>509-011800-
WESTCENTRAL MOUNTAINS/SOUTHWEST MOUNTAINS

CITY           SKY/WX    TMP DP  RH WIND       PRES   REMARKS
GALLUP         SUNNY     77  39  25 S8        30.22S
SILVER CITY    SUNNY     84  34  16 W17G23    30.18F

$$
NMZ407-409-411-412-011800-
SOUTHERN DESERTS

CITY           SKY/WX    TMP DP  RH WIND       PRES   REMARKS
LORDSBURG      FAIR      86  41  20 NW9       30.10S
DEMING         SUNNY     90  38  16 NW10G20   30.08S
LAS CRUCES     SUNNY     87  36  16 NE3       30.09F
HOLLOMAN AFB   SUNNY     89  40  17 N6        30.03F
ALAMOGORDO     SUNNY     88  39  18 N8        30.05F
T OR C         SUNNY     85  40  20 CALM      30.11S

$$
NMZ519>523-011800-
CENTRAL VALLEYS/CENTRAL HIGHLANDS

CITY           SKY/WX    TMP DP  RH WIND       PRES   REMARKS
ALBUQUERQUE    MOSUNNY   80  40  23 SW7       30.14F
DOUBLE EAGLE   MOSUNNY   79  41  25 VRB7      30.18S
MORIARTY ARPT  FAIR      80  39  23 W13       30.18F
CLINES CORNERS SUNNY     76  38  25 NW16G24   30.21F
BELEN          FAIR      83  40  22 NW3       30.13F
SOCORRO        FAIR      83  44  24 SE6       30.11S

$$
NMZ524>526-539-540-011800-
SOUTHCENTRAL MOUNTAINS

CITY           SKY/WX    TMP DP  RH WIND       PRES   REMARKS
RUIDOSO        SUNNY     77  39  25 NW9G17    30.26S

$$
NMZ527>531-011800-
NORTHEAST HIGHLANDS/NORTHEAST PLAINS

CITY           SKY/WX    TMP DP  RH WIND       PRES   REMARKS
LAS VEGAS      SUNNY     77  40  26 MISG      30.18S
RATON          SUNNY     73  43  33 SW9       30.14S
CLAYTON        SUNNY     75  49  39 NE9       30.08S

$$
NMZ532>537-011800-
EASTCENTRAL PLAINS

CITY           SKY/WX    TMP DP  RH WIND       PRES   REMARKS
TUCUMCARI      SUNNY     82  55  39 VRB6      30.01S
CANNON AFB     SUNNY     82  54  37 NE9       30.02S
CLOVIS AIRPORT   N/A     82  54  36 N12       30.04S

$$
NMZ028-029-538-011800-
SOUTHEAST PLAINS

CITY           SKY/WX    TMP DP  RH WIND       PRES   REMARKS
ROSWELL        SUNNY     89  47  23 CALM      29.98S
CARLSBAD       SUNNY     94  46  19 NE5       29.96S
HOBBS          SUNNY     91  48  22 W7        29.99S


$$



USA.gov is the U.S. government's official web portal to all federal, state and local government web resources and services.